| time (UTC) | temp F | wind direction | speed knots | gust knots | rain 1hr in | rain 24hr in | rain mn in | humidity % | barometer mb |
| 20260508193055 | 39 | 290 | 0.0 | 0.0 | 0.00 | 0.00 | 0.00 | 72 | 1023.2 |
| 20260508191544 | 38 | 310 | 0.0 | 0.0 | 0.00 | 0.00 | 0.00 | 72 | 1023.0 |
| 20260508190040 | 39 | 71 | 0.0 | 4.3 | 0.00 | 0.00 | 0.00 | 72 | 1023.0 |
| 20260508184541 | 39 | 267 | 0.0 | 0.0 | 0.00 | 0.00 | 0.00 | 72 | 1022.7 |
| 20260508183036 | 38 | 286 | 0.0 | 0.0 | 0.00 | 0.00 | 0.00 | 72 | 1022.9 |
| 20260508181534 | 39 | 36 | 0.0 | 0.0 | 0.00 | 0.00 | 0.00 | 72 | 1022.8 |
| 20260508180038 | 40 | 321 | 0.0 | 0.0 | 0.00 | 0.00 | 0.00 | 72 | 1022.8 |
| 20260508174534 | 39 | 321 | 0.0 | 0.0 | 0.00 | 0.00 | 0.00 | 72 | 1022.9 |
| 20260508173029 | 39 | 321 | 0.0 | 0.0 | 0.00 | 0.00 | 0.00 | 72 | 1022.7 |
| 20260508171537 | 39 | 59 | 0.0 | 0.0 | 0.00 | 0.00 | 0.00 | 72 | 1022.6 |
| 20260508170030 | 39 | 59 | 0.0 | 0.0 | 0.00 | 0.00 | 0.00 | 72 | 1022.7 |
| 20260508164526 | 40 | 59 | 0.0 | 0.0 | 0.00 | 0.00 | 0.00 | 72 | 1022.6 |
| 20260508163024 | 40 | 321 | 0.0 | 0.0 | 0.00 | 0.00 | 0.00 | 72 | 1022.6 |
| 20260508161527 | 40 | 321 | 0.0 | 0.0 | 0.00 | 0.00 | 0.00 | 72 | 1022.6 |
| 20260508160048 | 40 | 321 | 0.0 | 0.0 | 0.00 | 0.00 | 0.00 | 72 | 1022.7 |
| 20260508154522 | 40 | 38 | 0.0 | 0.0 | 0.00 | 0.00 | 0.00 | 72 | 1022.7 |
| 20260508153019 | 39 | 38 | 0.0 | 0.0 | 0.00 | 0.00 | 0.00 | 72 | 1022.6 |
| 20260508151516 | 40 | 302 | 0.0 | 0.0 | 0.00 | 0.00 | 0.00 | 72 | 1022.6 |
| 20260508150019 | 40 | 302 | 0.0 | 0.0 | 0.00 | 0.00 | 0.00 | 72 | 1022.7 |
| 20260508144513 | 40 | 302 | 0.0 | 0.0 | 0.00 | 0.01 | 0.00 | 72 | 1022.5 |
| 20260508143010 | 40 | 302 | 0.0 | 0.0 | 0.00 | 0.01 | 0.00 | 72 | 1022.4 |
| 20260508141505 | 40 | 64 | 0.0 | 1.7 | 0.00 | 0.01 | 0.00 | 72 | 1022.3 |
| 20260508140002 | 40 | 64 | 0.0 | 0.0 | 0.00 | 0.01 | 0.00 | 72 | 1022.2 |
| 20260508134503 | 40 | 64 | 0.0 | 0.0 | 0.00 | 0.01 | 0.01 | 72 | 1022.3 |
| 20260508133102 | 40 | 64 | 0.0 | 0.0 | 0.00 | 0.01 | 0.01 | 72 | 1022.2 |
| 20260508131559 | 41 | 64 | 0.0 | 3.5 | 0.00 | 0.01 | 0.01 | 72 | 1022.2 |
| 20260508130100 | 42 | 53 | 0.0 | 1.7 | 0.00 | 0.01 | 0.01 | 72 | 1022.2 |
| 20260508124553 | 42 | 302 | 1.7 | 3.5 | 0.00 | 0.01 | 0.01 | 72 | 1021.9 |
| 20260508123050 | 43 | 327 | 0.0 | 3.5 | 0.00 | 0.01 | 0.01 | 72 | 1021.9 |
| 20260508121601 | 44 | 300 | 0.0 | 1.7 | 0.00 | 0.01 | 0.01 | 72 | 1021.9 |
| 20260508120045 | 45 | 57 | 0.0 | 0.9 | 0.00 | 0.01 | 0.01 | 75 | 1022.1 |
| 20260508114542 | 45 | 55 | 0.0 | 4.3 | 0.00 | 0.01 | 0.01 | 83 | 1022.0 |
| 20260508113040 | 46 | 297 | 0.9 | 1.7 | 0.00 | 0.01 | 0.01 | 93 | 1021.9 |
| 20260508111539 | 47 | 297 | 0.0 | 1.7 | 0.00 | 0.01 | 0.01 | 100 | 1021.9 |
| 20260508110049 | 49 | 297 | 0.0 | 0.0 | 0.00 | 0.01 | 0.01 | 100 | 1021.9 |
| 20260508104536 | 49 | 297 | 0.0 | 1.7 | 0.00 | 0.01 | 0.01 | 100 | 1021.8 |
| 20260508103037 | 50 | 298 | 0.0 | 0.0 | 0.00 | 0.01 | 0.01 | 100 | 1021.6 |
| 20260508101537 | 51 | 298 | 0.0 | 1.7 | 0.00 | 0.01 | 0.01 | 100 | 1021.6 |
| 20260508100034 | 51 | 273 | 0.9 | 4.3 | 0.00 | 0.01 | 0.01 | 100 | 1021.5 |
| 20260508094536 | 51 | 163 | 0.9 | 3.5 | 0.00 | 0.01 | 0.01 | 100 | 1021.5 |
| 20260508093031 | 52 | 225 | 0.0 | 5.2 | 0.00 | 0.01 | 0.01 | 100 | 1021.4 |
| 20260508091529 | 52 | 360 | 1.7 | 5.2 | 0.00 | 0.01 | 0.01 | 100 | 1021.3 |
| 20260508090028 | 51 | 245 | 0.0 | 1.7 | 0.00 | 0.01 | 0.01 | 100 | 1021.2 |
| 20260508084526 | 51 | 245 | 0.0 | 1.7 | 0.00 | 0.01 | 0.01 | 100 | 1021.0 |
| 20260508083109 | 52 | 245 | 0.0 | 1.7 | 0.00 | 0.01 | 0.01 | 100 | 1020.9 |
| 20260508081522 | 53 | 245 | 0.0 | 1.7 | 0.00 | 0.01 | 0.01 | 100 | 1020.7 |
| 20260508080025 | 53 | 286 | 0.0 | 8.7 | 0.00 | 0.01 | 0.01 | 100 | 1020.3 |
| 20260508074521 | 53 | 265 | 0.0 | 4.3 | 0.00 | 0.01 | 0.01 | 100 | 1020.0 |
| 20260508073015 | 53 | 294 | 0.0 | 1.7 | 0.00 | 0.01 | 0.01 | 100 | 1019.7 |
| 20260508071513 | 53 | 229 | 0.0 | 4.3 | 0.00 | 0.01 | 0.01 | 100 | 1019.4 |
| 20260508070013 | 54 | 101 | 0.0 | 3.5 | 0.00 | 0.01 | 0.01 | 100 | 1019.2 |
| 20260508064534 | 55 | 27 | 0.0 | 4.3 | 0.00 | 0.01 | 0.01 | 100 | 1019.0 |
| 20260508063008 | 56 | 283 | 0.9 | 2.6 | 0.00 | 0.01 | 0.01 | 100 | 1018.7 |
| 20260508061508 | 57 | 51 | 1.7 | 4.3 | 0.00 | 0.01 | 0.01 | 100 | 1018.7 |
| 20260508060005 | 57 | 19 | 1.7 | 5.2 | 0.00 | 0.01 | 0.01 | 100 | 1018.5 |
| 20260508054502 | 57 | 328 | 0.0 | 3.5 | 0.00 | 0.01 | 0.01 | 100 | 1018.1 |
| 20260508053105 | 58 | 279 | 0.9 | 3.5 | 0.00 | 0.01 | 0.01 | 100 | 1017.8 |
| 20260508051600 | 58 | 304 | 3.5 | 5.2 | 0.00 | 0.01 | 0.01 | 100 | 1017.7 |
| 20260508044558 | 59 | 343 | 3.5 | 9.6 | 0.00 | 0.01 | 0.01 | 100 | 1017.6 |
| 20260508043056 | 60 | 69 | 3.5 | 5.2 | 0.00 | 0.01 | 0.01 | 100 | 1017.4 |
| 20260508041600 | 59 | 30 | 1.7 | 5.2 | 0.00 | 0.01 | 0.01 | 100 | 1017.4 |
| 20260508040106 | 60 | 75 | 1.7 | 6.1 | 0.00 | 0.01 | 0.01 | 100 | 1017.5 |
| 20260508034556 | 60 | 55 | 4.3 | 7.0 | 0.00 | 0.01 | 0.01 | 100 | 1017.6 |
| 20260508033053 | 60 | 340 | 3.5 | 7.8 | 0.00 | 0.01 | 0.01 | 100 | 1017.4 |
| 20260508031549 | 58 | 22 | 2.6 | 5.2 | 0.00 | 0.01 | 0.01 | 100 | 1017.4 |
| 20260508024558 | 58 | 294 | 5.2 | 10.4 | 0.00 | 0.01 | 0.01 | 100 | 1017.5 |
| 20260508023047 | 58 | 288 | 2.6 | 8.7 | 0.00 | 0.01 | 0.01 | 100 | 1017.4 |
| 20260508021547 | 58 | 267 | 1.7 | 7.0 | 0.00 | 0.01 | 0.01 | 100 | 1017.4 |
| 20260508020048 | 58 | 267 | 3.5 | 5.2 | 0.00 | 0.01 | 0.01 | 100 | 1017.3 |
| 20260508014546 | 58 | 78 | 1.7 | 6.1 | 0.00 | 0.01 | 0.01 | 100 | 1017.3 |
| 20260508013041 | 58 | 66 | 3.5 | 5.2 | 0.00 | 0.01 | 0.01 | 100 | 1017.1 |
| 20260508011550 | 57 | 346 | 0.9 | 4.3 | 0.00 | 0.01 | 0.01 | 100 | 1017.1 |
| 20260508010044 | 58 | 47 | 0.9 | 9.6 | 0.00 | 0.01 | 0.01 | 100 | 1016.8 |
| 20260508004550 | 57 | 32 | 2.6 | 15.6 | 0.00 | 0.01 | 0.01 | 100 | 1016.4 |
| 20260508003038 | 58 | 285 | 4.3 | 10.4 | 0.00 | 0.01 | 0.01 | 100 | 1016.3 |
| 20260508001537 | 58 | 5 | 3.5 | 7.8 | 0.00 | 0.01 | 0.01 | 100 | 1016.1 |
| 20260508000030 | 57 | 5 | 4.3 | 10.4 | 0.00 | 0.01 | 0.01 | 100 | 1016.0 |
| 20260507234529 | 57 | 9 | 4.3 | 16.5 | 0.00 | 0.01 | 0.01 | 100 | 1015.7 |
| 20260507233024 | 56 | 211 | 2.6 | 8.7 | 0.00 | 0.01 | 0.01 | 100 | 1015.6 |
| 20260507231521 | 55 | 18 | 2.6 | 6.1 | 0.00 | 0.01 | 0.01 | 100 | 1015.5 |
| 20260507230019 | 55 | 127 | 4.3 | 8.7 | 0.00 | 0.01 | 0.01 | 100 | 1015.2 |
| 20260507224518 | 54 | 276 | 3.5 | 13.0 | 0.00 | 0.01 | 0.01 | 100 | 1014.7 |
| 20260507223014 | 53 | 49 | 3.5 | 10.4 | 0.00 | 0.01 | 0.01 | 100 | 1014.2 |
| 20260507221512 | 53 | 273 | 4.3 | 12.2 | 0.00 | 0.01 | 0.01 | 100 | 1013.8 |
| 20260507220011 | 53 | 306 | 0.9 | 8.7 | 0.00 | 0.01 | 0.01 | 100 | 1013.8 |
| 20260507214508 | 53 | 107 | 3.5 | 8.7 | 0.00 | 0.01 | 0.01 | 100 | 1013.2 |
| 20260507213005 | 52 | 49 | 2.6 | 8.7 | 0.00 | 0.01 | 0.01 | 100 | 1012.7 |
| 20260507211503 | 52 | 348 | 6.1 | 20.0 | 0.00 | 0.01 | 0.01 | 100 | 1012.7 |
| 20260507210002 | 49 | 296 | 2.6 | 10.4 | 0.00 | 0.01 | 0.01 | 100 | 1012.2 |
| 20260507204612 | 47 | 338 | 0.0 | 4.3 | 0.00 | 0.01 | 0.01 | 100 | 1011.9 |
| 20260507203058 | 48 | 277 | 0.9 | 4.3 | 0.00 | 0.01 | 0.01 | 100 | 1011.7 |
| 20260507201555 | 49 | 281 | 2.6 | 4.3 | 0.00 | 0.01 | 0.01 | 100 | 1011.6 |
| 20260507200053 | 50 | 227 | 0.0 | 9.6 | 0.00 | 0.01 | 0.01 | 100 | 1010.9 |
| 20260507194551 | 51 | 220 | 2.6 | 4.3 | 0.00 | 0.01 | 0.01 | 100 | 1010.8 |